ONEWEB-0588 (55153 NORAD) Tracking and Keplerian Element Data

This shows tracking and keplerian element data for the satellite.

Feedback or suggestion? Click here.




ElementValue
Catalog55153
NameONEWEB-0588
Epoch Orbit1119
Epoch Day84.9334623
Epoch Year2023
RAAN253.7669
Inclination86.6217
Eccentricity0.0007329
Argument of Perigee339.6654
Mean Anonmoly20.4267
Mean Motion14.65737769
Decay Rate1.707E-05
L11 55153U 23004P 23084.93346230 .00001707 00000+0 30931-3 0 9998
L22 55153 86.6217 253.7669 0007329 339.6654 20.4267 14.65737769 11194



Live tracking and technical data element details for ONEWEB-0588 (NORAD 55153). ONEWEB-0588 can be tracked NOW for your location showing map with azimuth and elevation plus other details from your city location.







IsCatalogInMostPopularTable: catalog: 55153, numindb: 11
Update: records affected: 1



GetName: 55153 ONEWEB-0588

Hit Count: updated at: Mon, 27 Mar 2023 07:33:25 GMT